Location: Darmstadt
(49.8706°N, 8.6494°E)
Time: 07:31:02
(UTC+01:00)

Cosmos 1939 Rocket - Pass Details

Date: 31 October 2020
Orbit: 533 x 584 km, 97.4° (Epoch: 03 December)

Event Time Altitude Azimuth Distance (km) Brightness Sun altitude
Rises 17:52:24 0° 147° (SSE) 2,716 6.1 -8.3°
Reaches altitude 10° 17:54:36 10° 140° (SE) 1,819 5.2 -8.7°
Maximum altitude 17:58:17 40° 70° (ENE) 811 3.2 -9.3°
Drops below altitude 10° 18:01:57 10° 0° (N) 1,810 5.3 -9.9°
Sets 18:04:09 0° 353° (N) 2,702 6.3 -10.2°
